Lancaster, OH

7:39 AM EDT on August 27, 2016 (GMT -0400)
Fairfield County

Weather History for KLHQ - August, 2014

Change the Weather History Date:

Saturday, August 30, 2014

  Actual Average Record
Temperature  
Mean Temperature 78 °F -  
Max Temperature 90 °F 82 °F 100 °F (1953)
Min Temperature 66 °F 58 °F 36 °F (1986)
Cooling Degree Days 12    
Growing Degree Days 28 (Base 50)    
Moisture  
Dew Point 65 °F    
Average Humidity 65    
Maximum Humidity 90    
Minimum Humidity 43    
Precipitation  
Precipitation 0.00 in - - ()
Sea Level Pressure  
Sea Level Pressure 30.04 in    
Wind  
Wind Speed 7 mph (South)    
Max Wind Speed 14 mph    
Max Gust Speed 22 mph    
Visibility 10 miles    
Events      
Averages and records for this station are not official NWS values.
T = Trace of Precipitation, MM = Missing Value Source: NWS Daily Summary

Daily Weather History Graph

Daily Weather History Graph

Search for Another Location

Airport or City:

Trip Planner

Search our weather history database for the weather conditions in past years. The results will help you decide how hot, cold, wet, or windy it might be!

Date:

Astronomy

Aug. 30, 2014 Rise Set
Actual Time 6:56 AM EDT 8:04 PM EDT
Civil Twilight 6:28 AM EDT 8:32 PM EDT
Nautical Twilight 5:55 AM EDT 9:05 PM EDT
Astronomical Twilight 5:21 AM EDT 9:40 PM EDT
Moon 11:42 AM EDT (8/30) 10:39 PM EDT (8/30)
Length of Visible Light 14h 03m
Length of Day
13h 08m
Waxing Crescent, 23% of the Moon is Illuminated
Aug 30
Waxing Crescent
Sep 2
First Quarter
Sep 8
Full
Sep 15
Last Quarter
Sep 24
New

Hourly Weather History & Observations

Time (EDT) Temp. Heat Index Dew Point Humidity Pressure Visibility Wind Dir Wind Speed Gust Speed Precip Events Conditions
12:53 AM 71.1 °F - 62.1 °F 73% 30.07 in 10.0 mi SE 4.6 mph - N/A   Mostly Cloudy
1:53 AM 73.0 °F - 62.1 °F 68% 30.06 in 10.0 mi SE 5.8 mph - N/A   Mostly Cloudy
2:53 AM 71.1 °F - 62.1 °F 73% 30.05 in 10.0 mi ESE 5.8 mph - N/A   Clear
3:53 AM 70.0 °F - 62.1 °F 76% 30.04 in 10.0 mi SE 6.9 mph - N/A   Clear
4:53 AM 70.0 °F - 62.1 °F 76% 30.04 in 10.0 mi SE 4.6 mph - N/A   Scattered Clouds
5:53 AM 66.0 °F - 63.0 °F 90% 30.05 in 10.0 mi SE 3.5 mph - N/A   Clear
6:53 AM 69.1 °F - 64.0 °F 84% 30.06 in 10.0 mi SSE 3.5 mph - N/A   Partly Cloudy
7:53 AM 71.1 °F - 64.9 °F 81% 30.06 in 10.0 mi SSE 3.5 mph - N/A   Clear
8:53 AM 75.9 °F - 69.1 °F 79% 30.07 in 10.0 mi South 6.9 mph - N/A   Clear
9:53 AM 80.1 °F 82.7 °F 68.0 °F 67% 30.07 in 10.0 mi SW 9.2 mph - N/A   Clear
10:53 AM 82.9 °F 85.0 °F 66.0 °F 56% 30.06 in 10.0 mi SSW 10.4 mph - N/A   Clear
11:53 AM 86.0 °F 87.6 °F 64.9 °F 49% 30.05 in 10.0 mi SW 12.7 mph - N/A   Clear
12:53 PM 88.0 °F 90.3 °F 66.0 °F 48% 30.04 in 10.0 mi SSW 10.4 mph - N/A   Clear
1:53 PM 89.1 °F 90.3 °F 64.0 °F 43% 30.03 in 10.0 mi SSW 13.8 mph 20.7 mph N/A   Clear
2:53 PM 87.1 °F 88.3 °F 64.0 °F 46% 30.02 in 10.0 mi SW 10.4 mph - N/A   Mostly Cloudy
3:53 PM 88.0 °F 88.7 °F 63.0 °F 43% 30.01 in 10.0 mi SW 12.7 mph 21.9 mph N/A   Mostly Cloudy
4:53 PM 88.0 °F 90.3 °F 66.0 °F 48% 29.99 in 10.0 mi WSW 8.1 mph - N/A   Overcast
5:53 PM 84.9 °F 86.6 °F 64.9 °F 51% 29.99 in 10.0 mi South 6.9 mph - N/A   Scattered Clouds
6:53 PM 82.9 °F 85.4 °F 66.9 °F 58% 29.99 in 10.0 mi SSW 5.8 mph - N/A   Clear
7:53 PM 82.0 °F 84.5 °F 66.9 °F 60% 29.99 in 10.0 mi SW 5.8 mph - N/A   Partly Cloudy
8:53 PM 78.1 °F - 66.9 °F 68% 30.02 in 10.0 mi SW 9.2 mph - 0.00 in   Partly Cloudy
9:53 PM 75.0 °F - 68.0 °F 79% 30.03 in 10.0 mi SSW 4.6 mph - 0.00 in   Scattered Clouds
11:53 PM 73.9 °F - 68.0 °F 82% 30.03 in 10.0 mi WSW 3.5 mph - N/A   Overcast